Simultaneous Nadir Overpasses (SNOs) Predictions

Prediction of SNOs between METOP-A and TERRA Satellite Orbit:

Table of predicted SNOs for the next 14.0 days since TLE Epoch: 10/11/2013
Index Date (METOP-A) Time (METOP-A) Lat,Lon (METOP-A) SZA (METOP-A ) Date (TERRA) Time (TERRA) Lat,Lon (TERRA) SZA (TERRA ) Distance(km) Time Diff (sec)
1 10/11/2013 17:47:26 81.31, -39.77 91.67 10/11/2013 17:48:03 81.31, -39.96 91.67 3.28 37
2 10/11/2013 18:38:06 -81.31, 127.75 88.29 10/11/2013 18:37:29 -81.32, 127.94 88.29 3.36 37
3 10/14/2013 13:21:49 81.31, 26.57 92.73 10/14/2013 13:22:14 81.32, 26.71 92.76 2.61 25
4 10/14/2013 14:12:29 -81.31,-165.86 87.23 10/14/2013 14:11:41 -81.31,-165.73 87.24 2.26 48
5 10/17/2013 08:56:12 81.31, 92.87 93.76 10/17/2013 08:56:26 81.31, 92.95 93.78 1.35 14
6 10/17/2013 09:46:52 -81.31, -99.53 86.20 10/17/2013 09:45:53 -81.30, -99.46 86.22 1.24 59
7 10/20/2013 04:30:33 81.31, 159.51 94.82 10/20/2013 04:30:36 81.31, 159.50 94.82 0.32 3
8 10/20/2013 05:21:13 -81.31, -32.84 85.14 10/20/2013 05:20:03 -81.31, -32.88 85.18 0.70 70
9 10/22/2013 23:14:16 -81.30, 58.13 84.25 10/22/2013 23:15:22 -81.29, 58.00 84.24 2.33 66




NCC Satellite Simultaneous Nadir Overpasses (SNOs) Prediction Service
